Location: Newark
(41.0400°S, 62.7845°W)
Time: 02:52:04
(UTC+00:00)

Transit 2A - Pass Details

Date: 05 December 2021
Orbit: 591 x 967 km, 66.7° (Epoch: 20 January)

Event Time Altitude Azimuth Distance (km) Brightness Sun altitude
Rises 15:38:43 0° 334° (NNW) 3,234 9.4 70.8°
Reaches altitude 10° 15:41:12 10° 335° (NNW) 2,254 8.8 70.9°
Maximum altitude 15:46:19 82° 61° (ENE) 705 7.9 71.1°
Drops below altitude 10° 15:50:59 10° 148° (SSE) 2,067 8.2 71.3°
Sets 15:53:11 0° 149° (SSE) 2,945 8.9 71.3°
